EHI
6 4 4 6 6 2 0 0 0 0 0 0 0 0 0 0 0 0 0 0 0 0 0 0 0 0 0 0 0 0 0 1 2 2 1 0 0 1 2 3 3 2 1 0 1 2 2 2 1
7 6 6 6 4 1 0 0 0 0 0 0 0 0 0 0 0 0 0 0 0 0 0 0 0 0 0 0 0 0 0 0 1 1 0 0 1 2 3 4 3 1 0 0 0 1 1 1 0
8 7 6 5 2 0 0 0 0 0 0 0 0 0 0 0 0 0 0 0 0 0 0 0 0 0 0 0 0 0 0 0 0 0 0 0 1 3 4 4 3 1 0 0 0 0 0 0 0
7 6 5 2 0 0 0 0 0 0 0 0 0 0 0 0 0 0 0 0 0 0 0 0 0 0 0 0 0 0 0 0 0 0 0 0 1 3 4 4 3 2 1 0 0 0 0 0 0
5 5 3 1 0 0 0 0 0 0 0 0 0 0 0 0 0 0 0 0 0 0 0 0 0 0 0 0 0 0 0 0 0 0 0 0 1 2 3 2 2 2 1 0 0 0 0 0 0
6 4 1 0 0 0 0 0 0 0 0 0 0 0 0 0 0 0 0 0 0 0 0 0 0 0 0 0 0 0 0 0 0 0 0 0 1 1 1 1 1 1 0 0 0 0 0 0 0
4 3 1 0 0 0 0 0 0 0 0 0 0 0 0 0 0 0 0 0 0 0 0 0 0 0 0 1 0 0 0 0 0 1 0 0 1 2 2 2 1 0 1 1 1 0 0 0 0
2 2 1 0 0 0 0 0 0 0 0 0 0 0 0 0 0 0 0 0 0 0 0 0 0 0 0 0 0 0 0 0 0 1 1 1 1 3 3 3 2 1 1 1 1 0 0 0 1
2 2 1 0 0 0 0 0 0 0 0 0 0 0 1 1 1 0 0 0 0 0 0 0 0 0 0 0 0 0 0 0 0 1 1 2 3 3 3 2 2 2 1 0 0 0 0 0 1
2 1 0 0 0 1 1 1 0 0 0 0 0 1 2 2 1 1 0 0 0 0 0 0 0 0 0 0 0 0 0 0 0 0 1 1 3 3 2 1 1 1 1 0 0 0 0 0 1
1 0 0 0 1 2 2 1 1 1 1 0 1 3 4 3 2 2 1 1 2 1 1 0 0 0 0 0 0 0 0 0 0 0 0 0 1 1 1 1 1 0 0 0 0 0 0 0 0
0 0 0 0 1 2 1 1 1 1 2 1 3 6 6 4 3 3 2 2 2 2 1 0 0 0 0 0 0 0 0 0 0 0 0 0 0 0 1 2 1 0 0 0 0 0 0 0 0
0 0 0 0 1 1 1 1 1 1 1 1 4 7 7 4 2 2 2 1 1 1 1 0 0 0 0 0 0 0 0 0 0 0 0 0 0 0 0 1 0 0 0 0 0 0 0 0 0
0 0 0 0 1 1 2 3 2 1 0 1 4 6 5 2 1 1 1 0 0 0 0 0 0 0 0 0 0 0 0 0 0 0 0 0 0 0 0 0 0 0 0 0 0 0 0 0 0
0 0 0 0 1 2 3 3 2 0 0 1 2 4 4 2 0 0 0 0 0 0 0 0 0 0 0 0 0 0 0 0 0 0 0 0 0 0 0 0 1 1 0 0 1 1 0 0 0
0 0 0 0 1 1 2 2 2 1 0 0 1 3 4 2 0 0 0 0 0 0 1 1 0 0 1 1 1 1 0 0 0 0 0 0 0 0 0 0 1 1 0 0 1 1 0 0 0
0 0 0 0 0 0 0 1 2 2 0 0 1 3 3 1 0 0 0 0 0 1 2 2 2 1 2 2 2 1 0 0 0 0 0 0 0 0 0 0 1 1 0 0 1 1 0 0 0
0 0 0 0 0 0 0 1 3 4 2 1 2 3 3 1 0 0 0 0 0 1 3 4 4 4 3 2 2 1 0 0 0 0 0 0 0 1 1 0 0 1 0 0 0 0 0 1 1
0 0 0 0 0 0 0 0 2 5 4 3 4 5 3 1 1 1 1 1 1 2 5 6 6 6 4 3 2 2 1 1 0 0 0 0 1 2 2 2 1 1 1 1 1 0 1 2 2
0 0 0 0 0 0 0 0 2 4 5 5 6 6 4 2 1 1 2 3 4 5 8 9 8 8 6 5 5 4 3 2 0 0 0 0 1 2 3 3 3 2 2 2 2 2 3 3 4
0 0 0 0 0 0 0 1 2 3 4 5 6 6 4 1 0 2 4 5 5 6 9 11 11 11 10 9 8 7 6 2 0 0 1 1 1 1 2 3 3 3 3 3 4 5 6 6 5
0 0 0 0 0 0 0 1 2 2 3 5 6 7 5 2 1 3 5 6 5 5 6 10 13 14 13 12 12 10 6 2 0 1 2 2 1 1 2 3 3 4 4 4 5 8 9 9 7
0 0 0 0 0 0 0 1 1 1 1 3 6 7 7 4 2 3 5 5 4 3 3 7 13 16 15 15 14 10 6 3 2 3 4 3 3 2 2 3 5 5 5 6 8 10 11 10 10
0 0 0 0 0 0 0 0 0 0 0 1 4 6 6 6 5 5 6 7 6 3 3 8 14 17 16 15 12 9 7 6 6 6 5 4 3 3 4 5 7 8 8 8 11 11 11 10 11
0 0 0 0 0 0 0 0 0 0 0 1 3 5 5 6 8 10 11 12 11 8 7 12 18 19 16 14 11 9 9 10 9 8 7 6 4 4 6 7 9 10 11 11 12 11 10 10 11
0 0 0 0 0 0 0 0 0 0 0 1 3 4 4 5 9 13 14 15 14 12 11 15 19 20 17 15 14 13 12 12 10 9 8 7 5 5 6 7 9 13 14 13 12 11 11 11 11
0 0 0 0 0 0 0 0 0 0 0 1 2 2 3 6 9 11 12 13 13 13 13 15 18 20 18 17 16 14 13 11 9 8 7 7 6 5 5 7 10 13 14 13 12 12 12 11 11
0 0 0 0 0 0 0 0 1 0 0 2 2 2 3 6 8 9 10 11 12 12 13 15 17 17 17 15 14 12 11 10 9 8 7 7 6 6 6 7 10 13 13 12 12 11 11 11 10
0 0 0 0 0 0 0 0 0 0 0 1 3 3 4 6 8 9 11 13 14 13 12 13 14 14 13 13 11 10 10 11 10 10 10 9 8 7 7 9 11 13 13 13 12 11 10 10 10
0 0 0 0 0 0 0 0 0 0 0 1 3 4 6 8 10 12 14 15 15 13 11 12 13 13 12 12 12 11 11 12 12 12 12 11 10 9 9 10 13 14 14 14 14 12 10 10 10
Wind_Speed
11 9 6 5 4 4 10 9 8 7 8 8 8 7 8 9 8 7 5 4 4 4 5 5 6 6 6 6 6 6 6 7 7 7 7 6 6 7 9 9 9 9 10 10 10 10 10 11 11
8 6 6 4 2 8 11 9 9 10 8 6 7 7 8 9 8 6 5 4 4 5 5 7 8 7 7 6 7 7 7 7 7 7 7 6 6 8 9 9 9 9 9 10 10 9 9 10 10
7 6 5 1 8 10 11 9 9 9 7 5 6 7 8 7 6 5 6 5 4 6 6 9 7 7 8 7 7 8 8 8 8 8 8 7 8 9 9 9 9 8 9 9 9 9 9 9 9
5 5 3 4 12 12 10 9 7 8 7 6 6 8 8 8 5 7 7 5 5 6 7 9 8 8 8 8 8 8 9 9 8 8 8 8 8 9 9 9 8 8 8 8 8 8 8 8 9
5 3 3 9 12 11 9 8 6 7 7 7 7 10 10 8 7 8 7 6 6 7 7 9 9 8 9 9 9 9 9 9 9 8 8 8 8 8 8 8 8 8 8 8 8 8 8 8 8
4 2 4 10 11 9 8 6 6 8 8 7 7 9 9 7 7 7 7 6 6 6 7 8 9 9 9 10 9 9 9 9 9 9 8 9 9 9 9 8 8 7 7 7 8 8 8 8 8
3 3 7 9 9 9 7 5 6 7 8 7 5 8 8 7 6 7 7 6 7 6 6 6 7 8 9 11 10 10 10 10 9 9 9 9 9 9 9 9 8 7 6 7 8 8 7 7 7
3 0 7 8 8 10 7 6 6 6 8 6 3 6 7 7 6 7 7 7 6 6 6 6 7 6 6 9 11 10 10 10 9 9 9 8 9 10 9 9 9 8 8 8 8 7 7 7 7
5 1 7 8 8 9 7 7 6 6 8 6 6 7 10 10 8 7 6 6 6 6 6 6 6 6 6 8 8 8 9 8 7 7 7 4 5 7 7 10 9 9 8 8 7 7 6 6 7
3 4 9 6 6 8 7 6 6 6 8 8 9 10 11 10 8 7 6 6 6 6 6 6 6 6 6 5 5 4 5 6 6 6 5 5 5 5 6 9 8 8 8 7 7 6 5 4 4
2 5 6 5 6 6 7 7 4 5 6 6 9 11 11 9 8 6 6 5 6 5 5 6 6 5 5 4 4 3 4 4 5 6 5 5 4 4 4 4 6 6 5 4 6 4 2 2 3
3 5 4 5 5 5 6 7 6 5 8 8 9 11 11 9 8 6 6 5 5 4 4 5 5 5 5 5 4 3 3 3 4 5 5 4 3 4 5 3 4 3 3 3 3 2 3 3 2
4 5 5 5 5 6 6 7 6 7 8 9 11 11 10 8 7 6 5 5 5 4 4 4 4 5 4 4 3 4 4 4 4 4 5 4 4 4 4 4 3 3 3 3 2 3 3 2 1
4 5 5 6 7 6 6 6 5 7 8 10 10 10 9 7 7 6 5 4 4 4 4 4 4 5 3 3 3 2 3 3 3 4 5 4 4 4 3 3 3 3 3 3 2 3 2 1 1
4 5 6 5 5 5 6 6 6 8 9 10 10 9 8 7 6 5 5 4 4 4 4 4 4 4 3 3 2 2 2 3 3 3 4 3 3 3 2 3 3 3 3 3 2 2 1 1 1
5 5 4 6 4 5 6 5 8 9 9 9 9 9 8 7 6 5 5 4 4 4 4 3 3 4 3 3 1 2 2 2 2 2 3 3 3 3 2 2 3 2 2 1 1 1 1 1 1
5 2 2 6 4 4 5 3 9 9 9 8 9 8 8 8 7 6 6 5 5 5 4 4 3 3 3 3 2 2 2 2 2 2 2 3 2 2 1 2 2 1 1 2 1 2 1 1 1
2 1 1 3 4 4 4 2 8 9 9 8 9 9 8 8 8 7 6 6 6 5 5 4 4 3 2 2 2 1 2 1 1 2 2 2 1 2 1 1 2 2 2 1 2 2 2 1 1
3 2 0 3 2 3 2 2 5 9 9 9 9 9 8 8 8 8 7 7 6 6 5 5 4 4 3 2 1 1 2 1 1 1 2 1 1 2 1 1 1 1 1 2 1 1 1 0 0
4 3 1 3 2 3 2 2 3 7 9 9 9 9 9 9 9 9 8 8 8 7 6 6 6 5 4 2 1 1 0 0 1 1 2 1 1 1 0 1 1 1 1 1 1 1 1 1 1
5 5 2 1 3 5 5 5 6 6 7 8 9 9 9 10 10 11 10 9 8 8 7 6 6 5 5 4 3 2 2 2 2 2 1 1 1 1 1 1 2 2 2 1 2 1 2 2 1
5 3 4 4 5 3 4 2 4 6 8 8 9 10 10 10 10 11 11 10 10 9 8 7 6 6 6 5 4 4 2 2 1 1 1 1 0 0 1 1 1 2 2 1 2 1 2 3 2
3 2 4 5 6 5 4 5 2 5 5 7 8 9 9 10 11 11 11 10 9 9 8 7 7 7 6 6 5 5 4 2 2 2 2 1 1 0 0 1 1 1 2 2 3 2 3 2 3
4 5 6 7 8 5 3 5 1 2 1 3 6 8 8 9 10 10 10 10 9 8 8 8 8 7 7 7 6 6 5 3 2 2 1 2 1 1 0 0 1 2 2 2 2 2 2 3 3
9 8 6 6 6 3 2 5 1 2 0 1 3 6 8 9 10 10 11 11 10 9 8 8 8 8 7 8 7 6 6 5 4 4 3 2 1 1 1 0 1 1 1 2 2 2 2 2 2
9 10 7 6 4 3 5 4 0 1 1 1 3 5 7 8 9 10 10 10 10 10 9 8 7 7 6 6 6 6 6 5 4 3 3 2 1 0 1 1 1 1 2 2 1 2 1 1 2
7 8 7 8 7 6 2 2 3 3 2 3 4 5 7 8 9 9 9 9 9 9 9 8 8 7 6 6 6 5 5 5 3 3 3 2 1 1 1 1 1 1 1 2 2 1 2 2 2
6 5 6 7 7 7 5 4 2 3 3 2 3 5 5 7 8 8 8 8 7 7 8 8 7 7 6 6 6 5 5 5 4 4 3 2 1 1 1 2 2 2 2 2 2 2 1 2 2
7 8 6 5 6 8 4 1 3 0 1 1 2 3 4 6 7 7 7 7 7 7 7 7 8 7 7 6 5 5 5 5 5 4 4 3 3 2 2 2 2 2 2 2 2 3 2 3 3
6 7 8 7 5 6 7 0 4 2 1 1 1 2 3 4 5 6 7 7 7 7 6 7 7 7 7 6 6 6 5 5 5 5 4 4 3 3 3 3 3 3 2 2 3 4 3 3 3
Wind_Direction
176 181 203 231 225 83 65 63 61 67 63 54 49 47 50 38 30 58 74 65 53 54 65 77 55 60 71 70 69 77 86 94 95 96 101 108 119 132 132 128 126 125 128 131 134 133 132 133 135
173 184 222 239 37 74 69 64 64 60 72 76 69 64 66 60 52 83 94 76 65 64 66 64 62 65 70 71 74 78 84 91 98 100 97 97 113 127 129 128 127 126 126 130 132 132 132 133 134
178 223 261 42 56 58 71 70 75 76 73 67 71 56 47 54 59 72 84 91 78 70 66 73 64 67 67 69 73 76 82 89 92 95 94 92 107 118 123 123 124 125 126 128 128 128 128 132 134
212 222 228 66 68 63 69 77 83 90 78 63 75 77 67 51 50 77 95 95 81 75 71 74 62 65 68 70 70 74 79 84 87 90 92 93 99 108 116 118 119 122 126 128 125 123 122 125 135
238 253 103 79 71 72 74 75 74 73 72 74 75 84 78 64 75 89 95 92 80 76 74 79 67 65 67 69 70 71 78 80 83 85 88 95 99 106 112 111 114 122 127 129 127 124 114 112 126
240 234 71 76 79 81 79 80 78 80 86 88 89 91 80 84 92 94 89 84 79 75 76 86 89 75 73 72 72 73 75 76 78 82 84 91 99 106 108 111 114 115 120 124 121 118 114 111 117
307 48 67 76 85 85 81 78 68 78 85 77 78 88 98 100 100 98 92 88 79 72 72 75 88 94 92 82 74 73 73 73 75 79 85 92 99 102 105 109 111 111 112 116 117 117 118 124 127
300 24 83 78 79 82 94 91 77 76 82 86 76 88 111 118 120 109 98 87 80 76 76 77 78 75 85 91 83 78 75 71 73 76 79 91 108 108 111 111 103 106 110 114 120 121 118 125 130
258 54 69 64 67 88 108 109 98 90 101 95 76 81 108 122 126 113 104 97 88 79 77 73 75 76 76 78 86 91 88 76 81 84 83 91 92 99 113 88 93 97 101 105 113 122 125 135 140
260 63 65 57 60 92 108 101 113 120 108 104 102 102 117 129 126 115 105 96 90 82 80 75 71 70 79 73 77 73 76 74 64 62 62 65 66 68 80 101 97 97 100 109 106 120 146 180 143
51 59 77 85 88 102 110 107 113 114 101 107 122 128 134 131 122 117 105 92 88 90 86 83 82 60 59 70 71 64 67 69 71 65 67 66 64 77 79 91 109 106 110 102 111 131 111 93 84
94 80 80 97 107 113 110 111 103 81 78 102 122 132 135 135 128 120 114 107 102 93 86 78 79 76 58 50 62 73 75 72 68 69 55 65 62 55 61 60 64 78 82 75 71 81 81 77 93
115 101 95 107 122 113 117 110 100 98 103 114 126 136 139 136 130 125 119 116 112 108 95 87 75 73 70 63 45 66 66 67 78 70 65 56 64 60 57 53 49 54 69 85 75 71 81 90 126
97 112 116 118 125 131 131 124 126 117 128 132 138 143 144 139 136 132 130 126 127 127 112 97 92 89 78 75 65 66 78 78 66 72 68 54 58 58 53 64 54 50 49 48 53 70 76 78 84
155 152 140 128 143 147 158 137 131 134 146 144 147 148 148 150 151 147 140 141 138 133 120 119 112 99 96 90 81 84 85 85 78 81 84 70 68 68 61 64 60 50 48 61 61 60 68 119 116
195 199 142 128 159 170 226 114 132 152 160 153 154 155 159 159 164 160 155 158 150 142 136 132 125 114 108 95 70 72 68 80 83 84 88 80 68 66 48 57 55 47 42 47 64 66 43 65 59
201 208 108 126 158 181 221 114 134 165 172 163 166 166 169 165 174 172 172 168 158 156 152 152 137 129 121 116 118 103 96 82 84 87 80 81 78 68 46 47 42 17 33 26 4 57 12 55 45
196 223 142 113 138 203 212 143 145 176 186 177 175 174 179 179 177 178 181 173 167 165 164 168 163 153 152 148 138 128 108 108 105 96 76 67 81 71 17 75 46 9 25 14 21 18 24 11 21
289 267 311 88 107 226 223 199 165 178 194 192 186 183 186 186 175 177 181 179 175 174 175 181 179 167 180 171 172 149 140 141 124 116 95 90 70 70 43 28 47 349 23 0 348 352 75 79 322
244 250 208 135 140 245 237 221 172 182 200 201 194 193 190 184 179 182 185 185 185 183 184 184 185 182 190 169 172 158 133 165 112 92 95 87 84 52 100 28 350 27 28 19 353 325 315 307 287
239 256 278 207 171 208 239 198 170 168 198 202 204 203 196 191 188 184 188 191 190 186 188 190 189 187 194 181 185 172 176 195 166 157 148 146 107 68 20 5 355 342 340 17 330 309 298 301 296
234 259 254 223 230 201 254 247 151 171 185 196 202 203 201 194 192 187 187 190 191 187 186 189 191 191 190 192 203 208 208 190 156 194 116 151 96 31 27 4 349 324 334 340 303 2 301 288 293
255 223 232 239 244 246 222 262 146 167 196 194 195 198 199 193 191 189 188 187 190 187 187 184 186 190 191 198 200 215 218 203 192 190 146 232 163 242 346 345 330 307 312 343 332 330 312 305 308
185 197 213 229 242 241 256 264 229 145 227 199 183 188 191 188 187 187 186 184 187 187 188 184 182 188 192 199 205 216 219 218 222 219 192 222 189 183 129 313 317 299 321 320 313 311 312 322 317
216 232 230 225 225 231 209 254 292 46 40 231 183 182 183 182 183 183 184 184 186 187 188 186 184 189 192 199 205 211 214 216 219 231 215 246 231 185 123 300 295 310 310 297 300 291 321 308 301
223 248 264 274 268 226 189 244 131 104 138 186 185 179 176 178 182 183 184 185 186 185 186 186 186 190 191 201 205 208 210 220 220 219 247 239 258 171 101 209 247 278 283 293 299 289 288 298 296
218 238 270 269 270 270 236 193 178 191 189 179 173 172 175 176 178 181 181 180 184 184 183 184 184 187 190 200 205 203 207 218 219 209 222 229 235 219 195 241 254 260 266 290 278 290 301 297 282
262 241 237 253 266 261 238 229 210 185 198 188 176 173 172 175 176 176 176 175 176 179 180 180 179 178 180 191 202 194 199 206 209 216 212 234 244 257 248 250 261 263 267 274 274 261 266 271 275
204 217 243 255 270 275 268 237 65 64 215 211 172 163 167 177 178 176 173 169 169 173 174 175 176 174 177 187 193 202 201 200 203 210 212 214 223 230 245 253 263 268 270 277 281 289 279 272 279
245 239 233 246 247 264 279 145 90 101 118 164 140 140 153 165 169 166 163 160 163 167 171 174 175 174 177 181 185 192 198 201 206 206 213 216 219 228 236 252 260 263 264 268 272 279 282 274 273